Home > Time Zones > World Clock > Weather > Japan > Tokyo > Past weeks

Flag for Japan Weather past 2 weeks in Tokyo, Japan

Now
67 °F

Mild.


Feels Like: 67 °F
Forecast: 52 / 69 °F
Wind: 5 mph from Northeast

Location: Tokyo


UV Index: 7 (High)

Visibility: N/A


Pressure: 30.25 "Hg

Humidity: 43%

Dew point: 44 °F

Location of TokyoLocation

Historic Weather in Tokyo

°F

Tokyo temperature yesterday

Maximum temperature yesterday: 69 °F (at 1:00 PM)
Minimum temperature yesterday: 54 °F (at 1:00 AM)
Average temperature yesterday: 61 °F

Past Weeks' High & Low Weather Summary

 TemperatureHumidityPressure
High73 °F (Apr 16, 2:00 PM)94% (Apr 21, 11:00 PM)30.27 "Hg (Apr 21, 11:00 PM)
Low45 °F (Apr 20, 6:00 AM)10% (Apr 12, 1:00 PM)29.66 "Hg (Apr 10, 3:00 PM)
Average58 °F54%30.00 "Hg
* Reported Apr 9 10:00 AM — Apr 24 10:00 AM, Tokyo, Weather by CustomWeather, © 2014

Note: Actual official high and low records may vary slightly from our data, if they occured in-between our weather recording intervals... More about our weather records

Advertising

Historic Weather Conditions — Data for Previous 24 hours

 ConditionsComfort  
Time TempWeatherWind HumidityBarometerVisibility
10:00 AM
Apr 24
63 °FMild.5 mph41%30.27 "HgN/A
9:00 AM62 °FPassing clouds.7 mph37%30.26 "Hg12 mi
8:00 AM59 °FRefreshingly cool.6 mph41%30.25 "HgN/A
7:00 AM57 °FRefreshingly cool.2 mph52%30.24 "HgN/A
6:00 AM56 °FPartly sunny.5 mph52%30.22 "Hg12 mi
5:00 AM55 °FCool.3 mph67%30.19 "HgN/A
4:00 AM56 °FCool.5 mph67%30.16 "HgN/A
3:00 AM56 °FPassing clouds.5 mph71%30.15 "Hg12 mi
2:00 AM57 °FCool.6 mph70%30.13 "HgN/A
1:00 AM59 °FCool.9 mph60%30.12 "HgN/A
12:00 AM60 °FCool.5 mph62%30.11 "HgN/A
11:00 PM
Apr 23
60 °FCool.3 mph60%30.09 "HgN/A
10:00 PM60 °FCool.8 mph61%30.07 "HgN/A
9:00 PM61 °FPassing clouds.7 mph61%30.07 "Hg12 mi
8:00 PM62 °FRefreshingly cool.5 mph56%30.05 "HgN/A
7:00 PM62 °FMild.9 mph53%30.00 "HgN/A
6:00 PM64 °FPassing clouds.10 mph46%29.97 "Hg12 mi
5:00 PM66 °FMild.10 mph42%29.95 "HgN/A
4:00 PM67 °FMild.9 mph30%29.94 "HgN/A
3:00 PM67 °FPassing clouds.8 mph31%29.93 "Hg9 mi
2:00 PM68 °FMild.6 mph30%29.94 "HgN/A
1:00 PM69 °FMild.6 mph28%29.95 "HgN/A
12:00 PM67 °FPassing clouds.6 mph25%29.96 "Hg12 mi
11:00 AM66 °FMild.6 mph27%29.98 "HgN/A
Weather by CustomWeather, © 2014

See weather overview